Volver al catálogo

OPS 4682 DEB

ActivoPO
NORAD 38365·DEBRIS·🇺🇸 United States

Lanzado Apr 3, 1965 desde Vandenberg Space Force Base

Loading…

Próximos Pases (próximas 24 horas)

TLE

ActualizadoSource: Space-Track

Época: Sep 13, 2026, 17:44 UTC

1 38365U 65027BS  26256.73899006  .00000771  00000-0  25565-2 0  9998
2 38365  90.2473 358.0247 0027631 106.1780 254.2385 12.99324645643819

Sigue OPS 4682 DEB en tiempo real con AllMySat

Download on the App Store